Location: Gleizolles
(44.4833°N, 6.7667°E)
Time: 14:45:57
(UTC+00:00)

deb Explorer IX - Pass Details

Date: 03 July 2024
Orbit: 510 x 878 km, 38.7° (Epoch: 21 July)

Event Time Altitude Azimuth Distance (km) Brightness Sun altitude
Rises 02:22:07 0° 207° (SSW) 2,655 - -12.8°
Reaches altitude 10° 02:25:39 10° 174° (S) 1,731 - -12.4°
Exits shadow 02:25:42 10° 173° (S) 1,723 ? -12.4°
Maximum altitude 02:27:07 12° 152° (SSE) 1,612 ? -12.2°
Drops below altitude 10° 02:28:34 10° 130° (SE) 1,719 ? -12.1°
Sets 02:32:03 0° 97° (E) 2,612 ? -11.7°
